SCP
0 0 0 0 0 -0 0 0 0 0 -0 -0 0 -0 0 0 0 0 0 0 0 0 0 0 0 0 0 0 0 0 0 0 0 0 0 0 0 0 0 0 0 0 0 0
0 0 0 0 0 0 0 0 0 0 0 -0 0 0 0 0 0 0 0 0 0 0 0 0 0 0 0 0 0 0 0 0 0 0 0 0 0 0 0 0 0 0 0 0
0 0 0 0 0 0 0 0 0 0 0 0 0 0 0 0 0 0 0 0 0 0 0 0 0 0 0 0 0 0 0 0 0 0 0 0 0 0 0 0 0 0 0 0
0 0 0 0 0 0 0 0 0 0 0 0 0 0 0 0 0 0 0 0 0 0 0 0 0 0 0 0 0 0 0 0 0 0 0 0 0 0 0 0 0 0 0 0
0 0 0 0 0 0 0 0 0 0 0 0 0 0 0 0 0 0 0 0 0 0 0 0 0 0 0 0 0 0 0 0 0 0 0 0 0 0 0 0 0 0 0 0
0 0 0 0 0 0 0 0 0 0 0 0 0 0 0 0 0 0 0 0 0 0 0 0 0 0 0 0 0 0 0 0 0 0 0 0 0 0 0 0 0 0 0 0
0 0 0 0 0 0 0 0 0 0 0 0 0 0 0 0 0 0 0 0 0 0 0 0 0 0 0 0 0 0 0 0 0 0 0 0 0 0 0 0 0 0 0 0
0 0 0 0 0 0 0 0 0 0 0 0 0 0 0 0 0 0 0 0 0 0 0 0 0 0 0 0 0 0 0 0 0 0 0 0 0 0 0 0 0 0 0 0
0 0 0 0 0 0 0 0 0 0 0 0 0 0 0 0 0 0 0 0 0 0 0 0 0 0 0 0 0 0 0 0 0 0 0 0 0 0 0 0 0 0 0 0
0 0 0 0 0 0 0 0 0 0 0 0 0 0 0 0 0 0 0 0 0 0 0 0 0 0 0 0 0 0 0 0 0 0 0 0 0 0 0 0 0 0 0 0
0 0 0 0 0 0 0 0 0 0 0 0 0 0 0 0 0 0 0 0 0 0 0 0 0 0 0 0 0 0 0 0 0 0 0 0 0 0 0 0 0 0 0 0
0 0 0 0 0 0 0 0 0 0 0 0 0 0 0 0 -0 0 0 0 0 0 0 0 0 0 0 0 0 0 0 0 0 0 0 0 0 0 0 0 0 0 0 0
0 0 0 0 0 0 0 0 0 0 0 0 0 0 -0 0 0 0 0 0 0 0 0 0 0 0 0 0 0 0 0 0 0 0 0 0 0 0 0 0 0 0 0 -0
0 0 0 0 0 0 0 0 0 0 0 0 0 0 0 0 0 0 0 0 0 0 0 0 0 0 0 0 0 0 0 0 0 0 0 0 0 0 0 0 0 0 -0 -0
0 0 0 0 0 0 0 0 0 0 0 0 0 0 -0 0 0 0 0 0 0 0 0 0 0 0 0 -0 -0 -0 0 0 0 0 0 0 0 0 0 0 0 -0 -0 -0
0 0 0 0 0 0 0 0 0 0 0 0 0 0 0 0 0 0 0 0 0 0 0 0 0 0 0 0 0 0 0 0 0 0 0 0 0 0 0 0 0 -0 -0 -0
0 0 0 0 0 0 0 0 0 0 0 0 0 0 0 0 0 0 0 0 0 0 0 0 0 -0 0 0 0 0 0 0 0 0 0 0 0 0 0 -0 -0 -0 -0 -0
0 0 -0 0 0 0 0 0 0 0 0 0 0 0 0 0 0 0 0 0 0 0 0 0 0 0 0 0 -0 -0 0 0 -0 0 0 0 0 0 0 -0 -0 -0 -0 -0
0 0 0 0 0 0 0 0 0 0 0 0 0 0 0 0 0 0 0 0 0 0 0 0 0 0 0 0 0 0 0 0 -0 -0 -0 -0 0 0 0 -0 -0 -0 0 0
0 -0 0 0 0 -0 0 0 0 0 0 0 0 0 0 0 0 0 0 0 0 0 0 0 0 0 -0 -0 0 0 0 0 0 0 -0 -0 0 0 -0 -0 0 0 0 0
0 0 0 0 0 0 0 0 0 0 0 0 0 0 0 0 0 0 0 0 0 0 0 0 -0 -0 0 0 0 0 0 0 0 0 0 0 -0 -0 0 0 0 0 0 0
0 0 0 0 0 0 0 0 0 0 0 0 0 0 0 0 0 0 0 0 0 0 -0 -0 -0 0 -0 0 0 0 0 -0 0 -0 -0 -0 -0 0 0 0 0 0 0 0
0 0 0 -0 0 0 -0 0 -0 -0 0 0 0 0 0 -0 0 0 0 0 0 0 -0 -0 -0 -0 0 0 0 -0 -0 -0 0 0 0 -0 0 0 0 0 0 0 0 0
0 0 0 0 -0 0 0 0 -0 -0 -0 0 0 0 0 0 0 0 0 0 0 -0 0 -0 0 -0 -0 -0 0 0 0 0 0 0 0 0 0 0 0 0 0 0 0 0
0 0 0 -0 -0 0 0 0 0 -0 0 -0 0 0 0 0 0 0 0 0 0 0 0 -0 -0 -0 0 -0 -0 -0 -0 0 -0 -0 -0 -0 -0 -0 -0 0 0 0 0 0
0 0 0 0 0 -0 0 -0 0 0 0 0 0 0 0 -0 0 0 0 0 0 0 0 -0 -0 -0 -0 -0 -0 0 0 0 0 0 -0 -0 -0 -0 -0 0 0 0 0 0
0 0 0 0 -0 0 0 0 0 0 0 -0 -0 0 0 -0 -0 0 0 0 0 -0 0 0 -0 -0 -0 -0 -0 0 0 0 -0 -0 0 0 -0 0 -0 -0 -0 -0 0 0
Wind_Speed_500mb
33 40 41 40 41 36 14 5 8 1 5 22 8 12 5 6 9 10 9 8 20 19 16 20 16 19 10 11 20 16 4 8 24 40 36 35 40 42 35 21 22 27 25 27
36 35 35 33 31 37 27 12 9 4 6 12 11 12 11 6 8 12 6 7 5 15 16 9 16 12 8 19 10 7 12 8 18 22 31 27 30 33 32 31 32 46 34 28
29 31 35 25 21 26 18 10 6 9 6 5 14 4 14 9 5 14 6 9 8 14 19 16 15 10 9 7 5 16 2 19 30 27 34 8 10 23 29 26 22 35 40 47
27 27 30 21 14 17 12 7 5 7 0 9 10 7 4 15 5 5 10 6 6 3 9 11 25 23 23 17 24 13 12 9 22 41 45 47 49 44 42 44 46 43 46 50
27 24 23 23 10 9 4 15 11 4 1 5 11 10 5 9 3 7 2 15 8 16 20 21 25 24 24 27 24 16 15 10 24 43 45 49 53 48 48 48 49 53 50 53
27 27 19 15 7 9 8 7 7 12 3 8 8 5 5 0 12 14 7 8 15 24 23 20 30 35 38 31 23 27 12 13 17 34 34 31 31 42 45 42 44 44 41 39
26 25 23 16 8 0 7 9 10 9 9 4 7 6 11 14 11 21 27 26 24 16 16 36 46 53 55 52 41 37 20 23 15 18 25 20 22 3 14 19 21 23 22 16
32 29 26 22 15 13 4 9 7 8 10 17 11 13 10 12 24 23 24 22 12 15 24 18 17 21 28 40 33 33 38 18 8 10 20 32 39 22 21 18 21 9 23 12
33 31 29 24 22 13 15 13 9 9 8 6 9 14 4 12 14 21 16 2 13 13 7 7 13 7 19 6 7 6 3 15 7 9 12 9 7 4 6 10 23 14 18 21
31 29 28 26 24 22 19 18 13 11 11 19 7 4 5 9 9 10 23 12 5 4 5 7 12 18 13 9 2 6 6 7 18 18 15 16 8 4 8 15 7 20 31 37
28 27 25 26 25 28 19 29 24 25 11 29 27 19 19 18 12 7 6 13 7 4 5 7 6 7 6 12 6 7 10 7 10 14 10 16 3 8 12 16 29 36 40 45
23 24 25 26 27 29 31 33 29 32 28 19 11 25 33 32 30 16 14 11 4 3 6 6 8 10 7 16 9 7 8 12 4 8 6 13 13 15 24 27 35 36 47 53
17 18 19 20 24 25 28 37 30 25 23 39 37 29 15 25 36 35 18 14 15 15 16 7 5 10 12 12 14 14 12 7 10 13 10 14 18 25 20 21 34 44 47 54
15 14 15 15 15 19 28 38 43 28 6 7 11 8 17 12 19 32 45 30 15 15 7 7 5 7 12 13 15 21 23 22 26 30 32 27 10 16 28 38 43 43 49 54
17 17 18 19 20 22 26 34 49 35 22 5 13 27 33 33 28 25 28 36 34 13 8 6 6 10 14 22 23 24 18 12 13 13 23 18 30 38 43 35 39 50 52 60
15 17 20 23 22 18 18 16 39 43 46 7 6 8 12 14 16 29 26 28 29 22 13 8 11 31 12 8 14 8 11 13 16 21 30 30 36 33 35 42 47 50 54 55
16 23 24 23 26 23 20 10 3 14 50 9 6 10 13 17 18 17 19 23 14 18 10 11 16 27 15 5 20 38 21 15 16 20 26 32 33 42 39 44 46 49 54 55
23 22 26 19 20 21 26 40 25 11 26 10 6 8 11 22 17 13 14 10 15 13 9 8 9 9 8 8 26 30 8 13 17 18 24 31 35 37 37 43 46 52 56 60
19 21 11 15 18 13 13 25 36 40 13 6 7 6 2 14 14 12 9 12 6 12 7 8 9 6 10 19 19 12 10 15 22 26 30 33 31 38 40 42 47 52 58 62
13 11 5 3 7 15 34 25 13 15 6 8 8 13 9 7 7 10 9 9 5 6 11 11 5 8 38 22 8 8 10 13 19 24 31 37 37 39 40 43 46 50 56 60
15 12 5 30 48 19 8 8 8 10 7 13 12 18 10 4 7 1 6 2 4 5 6 6 8 6 9 7 2 3 8 14 18 24 28 31 34 39 41 44 47 50 55 54
10 7 21 25 10 3 5 7 9 9 7 17 11 8 11 2 3 3 2 4 4 6 18 6 5 5 9 6 2 6 12 14 20 21 27 32 33 35 38 42 46 50 52 51
9 5 9 9 8 9 10 14 8 8 9 11 14 6 5 6 5 4 4 7 8 7 6 6 4 13 10 6 1 10 10 10 19 23 28 32 32 33 36 41 43 48 49 49
7 7 8 9 10 11 9 2 10 10 10 12 13 9 6 7 7 5 7 9 6 6 7 1 6 13 11 4 3 8 12 17 21 24 28 30 33 35 36 39 42 47 50 48
5 6 8 12 14 7 1 7 16 10 13 16 8 6 10 5 6 8 9 6 8 3 3 11 19 17 9 5 6 11 15 18 21 24 27 31 33 35 37 39 41 43 45 46
6 9 10 15 11 13 14 9 26 13 15 11 3 2 4 8 7 7 10 3 2 3 10 21 16 12 12 8 11 12 15 18 21 23 27 31 34 35 36 39 41 43 43 45
7 10 19 19 16 7 0 7 15 19 19 4 5 6 6 5 5 5 2 3 4 12 21 26 17 16 11 12 11 13 16 19 21 23 27 31 32 34 37 44 44 45 43 43
Wind_Direction_500mb
324 326 334 341 347 356 14 255 251 86 222 250 243 256 104 40 269 276 280 262 281 297 307 294 279 276 289 6 336 260 56 272 269 274 280 246 260 268 248 260 265 265 277 270
322 328 333 341 351 355 357 297 299 314 200 267 204 96 251 250 307 302 294 298 12 330 305 304 293 274 308 145 201 313 164 209 271 261 234 241 248 251 261 269 269 260 266 268
322 331 330 339 352 349 344 283 238 159 215 334 316 344 254 262 142 284 316 281 288 281 269 264 275 263 336 299 257 115 134 264 255 273 296 178 276 289 289 273 259 268 261 280
308 323 333 340 351 357 360 286 96 333 250 113 322 279 354 269 283 303 295 245 240 124 256 273 252 267 303 237 231 211 179 245 258 271 275 278 283 272 258 254 257 260 273 275
298 306 321 332 5 21 317 314 324 190 223 272 268 143 131 303 285 278 232 286 312 303 274 265 282 280 267 265 280 246 182 268 258 277 273 265 266 264 262 261 260 264 272 271
294 295 297 327 32 32 332 320 304 283 90 184 250 21 18 321 316 274 283 328 295 285 286 301 290 287 270 258 257 267 260 256 282 270 276 273 259 253 257 258 259 262 266 274
286 282 283 280 277 219 321 300 286 276 274 262 320 298 280 301 295 294 296 297 287 301 305 291 274 262 252 250 245 243 244 247 257 276 288 252 269 212 281 282 291 278 283 288
274 275 273 271 273 233 246 279 280 285 279 302 283 225 256 270 282 280 277 307 349 325 303 297 286 255 224 237 248 235 220 215 231 259 259 274 282 295 224 275 291 292 285 327
264 262 261 264 256 250 253 245 248 283 282 7 351 306 317 293 297 300 249 334 295 302 291 267 267 283 311 182 168 112 122 199 189 225 247 254 68 254 2 307 270 39 6 337
262 260 255 256 252 246 250 245 247 245 267 293 254 2 279 283 287 283 311 305 307 262 259 255 263 256 261 279 285 199 159 178 216 233 261 269 350 244 287 250 8 333 320 318
258 255 251 252 251 240 249 250 247 235 239 271 279 268 243 248 231 224 352 289 226 200 250 259 296 304 315 277 226 189 197 232 204 211 241 246 27 234 244 348 317 316 319 319
257 252 250 249 245 242 238 251 247 244 235 253 258 263 258 253 241 217 213 276 324 114 262 225 262 263 285 307 282 199 249 218 221 254 278 322 301 295 296 299 306 331 313 314
258 257 261 258 255 248 243 240 258 241 243 268 267 262 264 230 226 222 214 219 228 242 268 312 307 276 294 276 279 288 278 301 241 280 275 279 278 253 299 355 319 313 320 312
258 250 265 258 248 241 236 242 242 246 199 254 260 267 210 240 218 217 223 231 193 248 214 230 251 265 281 281 274 279 281 279 281 283 271 315 262 0 329 319 320 320 311 308
266 257 263 261 260 264 242 241 236 239 220 260 283 296 283 243 227 212 222 226 235 222 187 226 225 260 281 269 277 269 288 315 280 300 329 321 310 322 326 332 321 313 312 314
253 260 272 271 264 271 228 223 244 240 222 234 265 255 249 220 227 209 211 216 226 229 184 215 237 260 263 276 264 289 318 322 311 296 316 309 306 319 323 317 313 319 314 311
264 266 273 266 269 244 213 207 298 221 215 186 267 237 170 188 180 195 206 211 210 208 200 226 243 249 204 250 266 284 304 306 304 310 311 315 323 319 313 307 321 317 314 312
277 272 278 253 242 236 225 237 260 183 181 186 260 273 193 180 195 192 172 169 205 214 226 230 242 243 210 256 256 275 277 289 294 326 320 312 306 303 310 325 322 320 320 324
278 283 291 237 219 196 222 205 183 178 173 226 216 245 315 183 196 170 167 184 193 208 214 229 206 186 223 247 293 297 291 318 326 324 323 304 315 329 327 328 325 323 325 326
248 187 247 189 161 156 157 151 171 198 235 233 250 236 254 248 201 180 157 212 219 220 208 155 227 250 249 261 285 309 309 325 328 326 321 334 331 330 330 328 328 326 326 326
198 190 141 133 154 144 155 153 184 174 224 205 230 238 220 221 251 151 247 172 278 263 150 222 215 236 139 158 197 297 317 321 318 320 332 331 331 332 331 332 330 330 330 333
197 161 140 162 184 230 226 200 173 211 243 167 187 171 204 131 254 288 243 261 221 264 163 228 248 108 131 146 167 311 317 316 324 334 335 338 337 334 334 335 334 335 336 339
191 137 136 168 177 228 226 184 191 198 190 158 162 132 125 167 171 214 246 236 237 188 216 219 79 123 140 127 5 303 308 326 336 336 339 341 342 342 344 341 341 339 343 346
198 167 180 224 180 232 226 295 84 93 121 141 135 122 178 179 183 224 244 237 216 247 221 108 113 128 134 125 291 343 353 354 346 346 345 350 350 350 349 349 348 348 349 351
221 207 236 218 252 262 183 122 112 117 132 135 156 184 183 180 241 218 235 234 236 8 45 86 107 121 117 116 46 11 8 2 0 355 358 357 356 356 355 355 356 353 353 354
230 233 256 231 255 235 203 182 113 127 136 152 186 189 222 219 241 231 225 253 87 83 87 100 120 128 103 83 56 30 24 18 9 8 8 6 4 4 2 2 3 1 1 0
229 239 248 270 299 265 127 59 133 143 145 184 204 225 235 211 243 238 87 72 89 116 97 111 118 112 102 86 64 48 34 25 23 21 18 17 13 10 11 11 9 7 9 8
Wind_Speed_850mb
33 40 41 40 41 36 14 5 8 1 5 22 8 12 5 6 9 10 9 8 20 19 16 20 16 19 10 11 20 16 4 8 24 40 36 35 40 42 35 21 22 27 25 27
36 35 35 33 31 37 27 12 9 4 6 12 11 12 11 6 8 12 6 7 5 15 16 9 16 12 8 19 10 7 12 8 18 22 31 27 30 33 32 31 32 46 34 28
29 31 35 25 21 26 18 10 6 9 6 5 14 4 14 9 5 14 6 9 8 14 19 16 15 10 9 7 5 16 2 19 30 27 34 8 10 23 29 26 22 35 40 47
27 27 30 21 14 17 12 7 5 7 0 9 10 7 4 15 5 5 10 6 6 3 9 11 25 23 23 17 24 13 12 9 22 41 45 47 49 44 42 44 46 43 46 50
27 24 23 23 10 9 4 15 11 4 1 5 11 10 5 9 3 7 2 15 8 16 20 21 25 24 24 27 24 16 15 10 24 43 45 49 53 48 48 48 49 53 50 53
27 27 19 15 7 9 8 7 7 12 3 8 8 5 5 0 12 14 7 8 15 24 23 20 30 35 38 31 23 27 12 13 17 34 34 31 31 42 45 42 44 44 41 39
26 25 23 16 8 0 7 9 10 9 9 4 7 6 11 14 11 21 27 26 24 16 16 36 46 53 55 52 41 37 20 23 15 18 25 20 22 3 14 19 21 23 22 16
32 29 26 22 15 13 4 9 7 8 10 17 11 13 10 12 24 23 24 22 12 15 24 18 17 21 28 40 33 33 38 18 8 10 20 32 39 22 21 18 21 9 23 12
33 31 29 24 22 13 15 13 9 9 8 6 9 14 4 12 14 21 16 2 13 13 7 7 13 7 19 6 7 6 3 15 7 9 12 9 7 4 6 10 23 14 18 21
31 29 28 26 24 22 19 18 13 11 11 19 7 4 5 9 9 10 23 12 5 4 5 7 12 18 13 9 2 6 6 7 18 18 15 16 8 4 8 15 7 20 31 37
28 27 25 26 25 28 19 29 24 25 11 29 27 19 19 18 12 7 6 13 7 4 5 7 6 7 6 12 6 7 10 7 10 14 10 16 3 8 12 16 29 36 40 45
23 24 25 26 27 29 31 33 29 32 28 19 11 25 33 32 30 16 14 11 4 3 6 6 8 10 7 16 9 7 8 12 4 8 6 13 13 15 24 27 35 36 47 53
17 18 19 20 24 25 28 37 30 25 23 39 37 29 15 25 36 35 18 14 15 15 16 7 5 10 12 12 14 14 12 7 10 13 10 14 18 25 20 21 34 44 47 54
15 14 15 15 15 19 28 38 43 28 6 7 11 8 17 12 19 32 45 30 15 15 7 7 5 7 12 13 15 21 23 22 26 30 32 27 10 16 28 38 43 43 49 54
17 17 18 19 20 22 26 34 49 35 22 5 13 27 33 33 28 25 28 36 34 13 8 6 6 10 14 22 23 24 18 12 13 13 23 18 30 38 43 35 39 50 52 60
15 17 20 23 22 18 18 16 39 43 46 7 6 8 12 14 16 29 26 28 29 22 13 8 11 31 12 8 14 8 11 13 16 21 30 30 36 33 35 42 47 50 54 55
16 23 24 23 26 23 20 10 3 14 50 9 6 10 13 17 18 17 19 23 14 18 10 11 16 27 15 5 20 38 21 15 16 20 26 32 33 42 39 44 46 49 54 55
23 22 26 19 20 21 26 40 25 11 26 10 6 8 11 22 17 13 14 10 15 13 9 8 9 9 8 8 26 30 8 13 17 18 24 31 35 37 37 43 46 52 56 60
19 21 11 15 18 13 13 25 36 40 13 6 7 6 2 14 14 12 9 12 6 12 7 8 9 6 10 19 19 12 10 15 22 26 30 33 31 38 40 42 47 52 58 62
13 11 5 3 7 15 34 25 13 15 6 8 8 13 9 7 7 10 9 9 5 6 11 11 5 8 38 22 8 8 10 13 19 24 31 37 37 39 40 43 46 50 56 60
15 12 5 30 48 19 8 8 8 10 7 13 12 18 10 4 7 1 6 2 4 5 6 6 8 6 9 7 2 3 8 14 18 24 28 31 34 39 41 44 47 50 55 54
10 7 21 25 10 3 5 7 9 9 7 17 11 8 11 2 3 3 2 4 4 6 18 6 5 5 9 6 2 6 12 14 20 21 27 32 33 35 38 42 46 50 52 51
9 5 9 9 8 9 10 14 8 8 9 11 14 6 5 6 5 4 4 7 8 7 6 6 4 13 10 6 1 10 10 10 19 23 28 32 32 33 36 41 43 48 49 49
7 7 8 9 10 11 9 2 10 10 10 12 13 9 6 7 7 5 7 9 6 6 7 1 6 13 11 4 3 8 12 17 21 24 28 30 33 35 36 39 42 47 50 48
5 6 8 12 14 7 1 7 16 10 13 16 8 6 10 5 6 8 9 6 8 3 3 11 19 17 9 5 6 11 15 18 21 24 27 31 33 35 37 39 41 43 45 46
6 9 10 15 11 13 14 9 26 13 15 11 3 2 4 8 7 7 10 3 2 3 10 21 16 12 12 8 11 12 15 18 21 23 27 31 34 35 36 39 41 43 43 45
7 10 19 19 16 7 0 7 15 19 19 4 5 6 6 5 5 5 2 3 4 12 21 26 17 16 11 12 11 13 16 19 21 23 27 31 32 34 37 44 44 45 43 43
Wind_Direction_850mb
324 326 334 341 347 356 14 255 251 86 222 250 243 256 104 40 269 276 280 262 281 297 307 294 279 276 289 6 336 260 56 272 269 274 280 246 260 268 248 260 265 265 277 270
322 328 333 341 351 355 357 297 299 314 200 267 204 96 251 250 307 302 294 298 12 330 305 304 293 274 308 145 201 313 164 209 271 261 234 241 248 251 261 269 269 260 266 268
322 331 330 339 352 349 344 283 238 159 215 334 316 344 254 262 142 284 316 281 288 281 269 264 275 263 336 299 257 115 134 264 255 273 296 178 276 289 289 273 259 268 261 280
308 323 333 340 351 357 360 286 96 333 250 113 322 279 354 269 283 303 295 245 240 124 256 273 252 267 303 237 231 211 179 245 258 271 275 278 283 272 258 254 257 260 273 275
298 306 321 332 5 21 317 314 324 190 223 272 268 143 131 303 285 278 232 286 312 303 274 265 282 280 267 265 280 246 182 268 258 277 273 265 266 264 262 261 260 264 272 271
294 295 297 327 32 32 332 320 304 283 90 184 250 21 18 321 316 274 283 328 295 285 286 301 290 287 270 258 257 267 260 256 282 270 276 273 259 253 257 258 259 262 266 274
286 282 283 280 277 219 321 300 286 276 274 262 320 298 280 301 295 294 296 297 287 301 305 291 274 262 252 250 245 243 244 247 257 276 288 252 269 212 281 282 291 278 283 288
274 275 273 271 273 233 246 279 280 285 279 302 283 225 256 270 282 280 277 307 349 325 303 297 286 255 224 237 248 235 220 215 231 259 259 274 282 295 224 275 291 292 285 327
264 262 261 264 256 250 253 245 248 283 282 7 351 306 317 293 297 300 249 334 295 302 291 267 267 283 311 182 168 112 122 199 189 225 247 254 68 254 2 307 270 39 6 337
262 260 255 256 252 246 250 245 247 245 267 293 254 2 279 283 287 283 311 305 307 262 259 255 263 256 261 279 285 199 159 178 216 233 261 269 350 244 287 250 8 333 320 318
258 255 251 252 251 240 249 250 247 235 239 271 279 268 243 248 231 224 352 289 226 200 250 259 296 304 315 277 226 189 197 232 204 211 241 246 27 234 244 348 317 316 319 319
257 252 250 249 245 242 238 251 247 244 235 253 258 263 258 253 241 217 213 276 324 114 262 225 262 263 285 307 282 199 249 218 221 254 278 322 301 295 296 299 306 331 313 314
258 257 261 258 255 248 243 240 258 241 243 268 267 262 264 230 226 222 214 219 228 242 268 312 307 276 294 276 279 288 278 301 241 280 275 279 278 253 299 355 319 313 320 312
258 250 265 258 248 241 236 242 242 246 199 254 260 267 210 240 218 217 223 231 193 248 214 230 251 265 281 281 274 279 281 279 281 283 271 315 262 0 329 319 320 320 311 308
266 257 263 261 260 264 242 241 236 239 220 260 283 296 283 243 227 212 222 226 235 222 187 226 225 260 281 269 277 269 288 315 280 300 329 321 310 322 326 332 321 313 312 314
253 260 272 271 264 271 228 223 244 240 222 234 265 255 249 220 227 209 211 216 226 229 184 215 237 260 263 276 264 289 318 322 311 296 316 309 306 319 323 317 313 319 314 311
264 266 273 266 269 244 213 207 298 221 215 186 267 237 170 188 180 195 206 211 210 208 200 226 243 249 204 250 266 284 304 306 304 310 311 315 323 319 313 307 321 317 314 312
277 272 278 253 242 236 225 237 260 183 181 186 260 273 193 180 195 192 172 169 205 214 226 230 242 243 210 256 256 275 277 289 294 326 320 312 306 303 310 325 322 320 320 324
278 283 291 237 219 196 222 205 183 178 173 226 216 245 315 183 196 170 167 184 193 208 214 229 206 186 223 247 293 297 291 318 326 324 323 304 315 329 327 328 325 323 325 326
248 187 247 189 161 156 157 151 171 198 235 233 250 236 254 248 201 180 157 212 219 220 208 155 227 250 249 261 285 309 309 325 328 326 321 334 331 330 330 328 328 326 326 326
198 190 141 133 154 144 155 153 184 174 224 205 230 238 220 221 251 151 247 172 278 263 150 222 215 236 139 158 197 297 317 321 318 320 332 331 331 332 331 332 330 330 330 333
197 161 140 162 184 230 226 200 173 211 243 167 187 171 204 131 254 288 243 261 221 264 163 228 248 108 131 146 167 311 317 316 324 334 335 338 337 334 334 335 334 335 336 339
191 137 136 168 177 228 226 184 191 198 190 158 162 132 125 167 171 214 246 236 237 188 216 219 79 123 140 127 5 303 308 326 336 336 339 341 342 342 344 341 341 339 343 346
198 167 180 224 180 232 226 295 84 93 121 141 135 122 178 179 183 224 244 237 216 247 221 108 113 128 134 125 291 343 353 354 346 346 345 350 350 350 349 349 348 348 349 351
221 207 236 218 252 262 183 122 112 117 132 135 156 184 183 180 241 218 235 234 236 8 45 86 107 121 117 116 46 11 8 2 0 355 358 357 356 356 355 355 356 353 353 354
230 233 256 231 255 235 203 182 113 127 136 152 186 189 222 219 241 231 225 253 87 83 87 100 120 128 103 83 56 30 24 18 9 8 8 6 4 4 2 2 3 1 1 0
229 239 248 270 299 265 127 59 133 143 145 184 204 225 235 211 243 238 87 72 89 116 97 111 118 112 102 86 64 48 34 25 23 21 18 17 13 10 11 11 9 7 9 8